Regional Weather Roundup
Issued by NWS

Home | Current Version | Previous Version | Text Only | Print | Product List | Glossary Off
Versions: 1 2 3 4 5 6 7 8 9 10 11 12 13 14 15 16 17 18 19 20 21 22 23 24 25 26 27 28 29 30 31 32 33 34 35 36 37 38 39 40 41 42 43 44 45 46 47 48 49 50

924
ASUS45 KTFX 090710
RWRMT
MONTANA REGIONAL WEATHER ROUNDUP
NATIONAL WEATHER SERVICE GREAT FALLS MT
1200 AM MST TUE FEB 09 2016

NOTE: "FAIR" INDICATES FEW OR NO CLOUDS BELOW 12000 FEET WITH NO
SIGNIFICANT WEATHER AND/OR OBSTRUCTIONS TO VISIBILITY.

MTZ001>007-043-090800-
WEST OF THE DIVIDE

CITY           SKY/WX    TMP DP  RH WIND       PRES   REMARKS
KALISPELL      PTCLDY    26  23  88 CALM      30.53S
MISSOULA       CLEAR     28  23  81 CALM      30.56R
BUTTE          CLOUDY    19  17  92 CALM      30.51S
MULLAN PASS    CLEAR     39  30  70 SW3       30.50F
ANACONDA         N/A     34  28  80 CALM      30.51S
DEER LODGE       N/A     30  28  93 CALM      30.52S
HAMILTON         N/A     32  28  86 CALM      30.53F
LIBBY            N/A     25  23  93 CALM      30.54F
$$

MTZ008-052>055-090800-
SOUTHWEST MONTANA

CITY           SKY/WX    TMP DP  RH WIND       PRES   REMARKS
BOZEMAN        CLOUDY    29  24  82 VRB6      30.47S WCI  23
DILLON         CLOUDY    32  26  78 S10       30.49S WCI  24
ENNIS          CLEAR     32  27  80 S15       30.55R WCI  22
$$

MTZ009-010-012-014-046-048-049-054-090800-
EAST SLOPES AND CENTRAL MONTANA

CITY           SKY/WX    TMP DP  RH WIND       PRES   REMARKS
CUT BANK       PTCLDY    41  30  65 W17       30.29S
GREAT FALLS    CLOUDY    41  30  65 SW14      30.33S
MALMSTROM AFB  CLEAR     38  30  72 SW13      30.33S WCI  31
HELENA         CLOUDY    37  30  75 VRB3      30.43R
CHOTEAU          N/A     50  28  43 W14G22    30.31F
$$

MTZ011-013-016-021-045-047-050-051-090800-
NORTH CENTRAL MONTANA

CITY           SKY/WX    TMP DP  RH WIND       PRES   REMARKS
HAVRE          CLEAR     33  28  81 SW14      30.27S WCI  23
LEWISTOWN      CLEAR     37  27  67 SW10      30.31F WCI  30
N BAR RANCH      N/A     41  27  56 NW7G14    30.30S
CHINOOK          N/A     27  25  93 CALM      30.28R
$$

MTZ017>020-022>027-061-062-090800-
NORTHEAST MONTANA

CITY           SKY/WX    TMP DP  RH WIND       PRES   REMARKS
GLASGOW        PTCLDY    27  19  72 NW7       30.23S WCI  19
JORDAN           N/A     32  29  88 W6        30.26R WCI  26
SIDNEY         CLOUDY    32  18  55 SW7       30.24F WCI  26
WOLF POINT     MOCLDY    22  18  85 W5        30.25R
PLENTYWOOD       N/A     28  19  69 SE5       30.20F
POPLAR           N/A     25  18  74 CALM      30.24S
$$

MTZ028>42-056>058-090800-
SOUTHCENTRAL AND SOUTHEAST MONTANA

CITY           SKY/WX    TMP DP  RH WIND       PRES   REMARKS
BAKER          CLEAR     19  12  74 S5        30.23F
BILLINGS       CLEAR     47  29  49 W15       30.32R
LIVINGSTON     CLOUDY    46  26  45 W22       30.40R
MILES CITY     CLEAR     28  24  85 W12       30.24S WCI  18
FORSYTH          N/A     36  27  69 SW5       30.26S
LAUREL           N/A     33  16  50 SW7       30.29R WCI  27
ROUNDUP          N/A     39  27  62 S7        30.18F
$$

REGIONAL REPORTS...DAKOTAS

CITY           SKY/WX    TMP DP  RH WIND       PRES   REMARKS
WILLISTON      CLOUDY    29  23  78 S5        30.24F
MINOT          CLOUDY    25  12  58 SW5       30.26S
DICKINSON      CLOUDY    28  17  63 N5        30.22R
BEACH          CLOUDY    27  18  69 S5        30.24F
CROSBY         CLOUDY    25  25 100 CALM      30.26R
TIOGA          CLOUDY    23  23 100 SE5       30.28F
WATFORD CITY   CLOUDY    27  21  80 SE6       30.23F WCI  20
BISMARCK       CLOUDY    26  13  57 N9        30.28R WCI  17
GRAND FORKS    CLEAR      5  -1  76 NW9       30.26R WCI  -9
FARGO          CLEAR      7   0  73 N16       30.23R WCI -11
BUFFALO SD       N/A     32  12  43 N5        30.16F
RAPID CITY     CLOUDY    33  18  53 N6        30.24R WCI  28
$$

REGIONAL REPORTS...WYOMING/IDAHO/WASHINGTON

CITY           SKY/WX    TMP DP  RH WIND       PRES   REMARKS
GILLETTE       PTCLDY    35  27  72 W14       30.26R WCI  26
SHERIDAN       CLEAR     38  28  67 W8        30.30R
BUFFALO WY     CLEAR     42  27  55 NW9       30.28S
CODY           CLOUDY    25  16  68 CALM      30.35S
YELLOWSTONE LA   N/A     13   9  84 CALM      30.58R
IDAHO FALLS    FOG       18  16  92 CALM      30.64S VSB 1/4
SALMON         CLOUDY    12  10  92 SE3       30.66S
BOISE          CLEAR     33  28  81 SE8       30.64S WCI  26
SPOKANE        PTCLDY    33  29  85 NE6       30.51S WCI  28
$$

REGIONAL REPORTS...ALBERTA

CITY           SKY/WX    TMP DP  RH WIND       PRES   REMARKS
EDMONTON       MOCLDY    36  27  69 SW6       30.16F WCI  31
CALGARY        PTCLDY    45  23  42 CALM      30.24S
LETHBRIDGE     CLEAR     46  30  53 W26G37    30.25S
MEDICINE HAT   CLEAR     27  25  93 SW5       30.26R
WATERTON GATE    N/A     46  28  49 SW28G43     N/A
CARDSTON         N/A     50  25  37 W14G20      N/A
MILK RIVER       N/A     39  28  65 W13         N/A  WCI  32
ONEFOUR          N/A     37  28  70 NW18        N/A  WCI  27
$$

REGIONAL REPORTS...SASKATCHEWAN

CITY           SKY/WX    TMP DP  RH WIND       PRES   REMARKS
SWIFT CURRENT  CLOUDY    30  27  86 W9        30.21S WCI  22
REGINA         CLOUDY    25  21  86 SE8       30.20F WCI  16
SASKATOON      CLOUDY    19  19 100 NW2       30.25R
CYPRESS HILLS    N/A     36  21  55 N3          N/A
VAL MARIE        N/A     28  25  86 S1          N/A
ROCKGLEN         N/A     30  25  80 NW9         N/A  WCI  22
ASSINIBOIA       N/A     36  32  87 S3          N/A
$$




USA.gov is the U.S. government's official web portal to all federal, state and local government web resources and services.